Weather History for Gainesville, GA

Change the Weather History Date:

Saturday, March 23, 2013

  Actual Average Record
Temperature  
Mean Temperature 44 °F 55 °F  
Max Temperature 50 °F 64 °F 84 °F (1935)
Min Temperature 39 °F 45 °F 24 °F (1943)
Degree Days  
Heating Degree Days 20 11  
Month to date heating degree days 311  
Since 1 July heating degree days 2775  
Cooling Degree Days 0 0  
Month to date cooling degree days 0  
Year to date cooling degree days 0  
Moisture  
Dew Point 41 °F    
Average Humidity 88    
Maximum Humidity 100    
Minimum Humidity 51    
Precipitation  
Precipitation 0.75 in 0.16 in 1.40 in (1948)
Month to date precipitation 4.19  
Year to date precipitation 14.09  
Sea Level Pressure  
Sea Level Pressure 29.96 in    
Wind  
Wind Speed 4 mph (ENE)    
Max Wind Speed 14 mph    
Max Gust Speed 32 mph    
Visibility 4 miles    
Events Rain , Thunderstorm    
T = Trace of Precipitation, MM = Missing Value Source: NWS Daily Summary

Daily Weather History Graph

Daily Weather History Graph

Search for Another Location

Airport:

Trip Planner

Search our weather history database for the weather conditions in past years. The results will help you decide how hot, cold, wet, or windy it might be!

Date:

Astronomy

Mar. 23, 2013 Rise Set
Actual Time 7:34 AM EDT 7:49 PM EDT
Civil Twilight 7:09 AM EDT 8:14 PM EDT
Nautical Twilight 6:40 AM EDT 8:43 PM EDT
Astronomical Twilight 6:10 AM EDT 9:13 PM EDT
Moon 4:23 PM EDT (3/23) 5:01 AM EDT (3/23)
Length of Visible Light 13h 05m
Length of Day
12h 14m
Waxing Gibbous, 85% of the Moon is Illuminated
Mar 23
Waxing Gibbous
Mar 27
Full
Apr 3
Last Quarter
Apr 10
New
Apr 18
First Quarter

Hourly Weather History & Observations

Time (EDT) Temp. Windchill Dew Point Humidity Pressure Visibility Wind Dir Wind Speed Gust Speed Precip Events Conditions
12:53 AM 46.0 °F - 28.9 °F 51% 30.02 in 10.0 mi Calm Calm - N/A   Overcast
1:53 AM 46.0 °F - 30.0 °F 54% 30.02 in 10.0 mi Calm Calm - N/A   Overcast
2:53 AM 45.0 °F - 30.9 °F 58% 30.00 in 10.0 mi Calm Calm - N/A   Overcast
3:28 AM 44.6 °F - 33.8 °F 66% 29.99 in 10.0 mi Calm Calm - 0.00 in Rain Light Rain
3:53 AM 45.0 °F 43.5 °F 33.1 °F 63% 29.98 in 10.0 mi NE 3.5 mph - 0.00 in Rain Light Rain
4:53 AM 44.1 °F 41.5 °F 34.0 °F 68% 29.95 in 8.0 mi SE 4.6 mph - 0.00 in Rain Light Rain
5:36 AM 42.8 °F - 37.4 °F 81% 29.97 in 4.0 mi Calm Calm - 0.06 in Rain Rain
5:53 AM 41.0 °F 39.0 °F 37.0 °F 86% 29.98 in 5.0 mi NNE 3.5 mph - 0.08 in Rain Light Rain
6:00 AM 41.0 °F 39.0 °F 37.4 °F 87% 29.98 in 4.0 mi NE 3.5 mph - 0.01 in Rain Light Rain
6:45 AM 41.0 °F 39.0 °F 37.4 °F 87% 29.98 in 4.0 mi NE 3.5 mph - 0.10 in Rain , Thunderstorm Rain
6:53 AM 41.0 °F 38.0 °F 37.9 °F 89% 30.00 in 3.0 mi NNW 4.6 mph - 0.13 in Rain Rain
7:01 AM 41.0 °F 39.0 °F 37.4 °F 87% 29.98 in 2.5 mi ENE 3.5 mph - 0.03 in Rain Rain
7:12 AM 39.2 °F 35.9 °F 37.4 °F 93% 29.98 in 3.0 mi ENE 4.6 mph - 0.06 in Rain Rain
7:37 AM 41.0 °F 39.0 °F 39.2 °F 93% 30.01 in 3.0 mi SSW 3.5 mph - 0.14 in Rain , Thunderstorm Rain
7:53 AM 39.9 °F - 37.9 °F 93% 30.01 in 3.0 mi Calm Calm - 0.17 in Rain Rain
8:10 AM 41.0 °F 36.4 °F 39.2 °F 93% 30.01 in 2.5 mi NNE 6.9 mph - 0.07 in Rain Rain
8:22 AM 39.2 °F 35.9 °F 39.2 °F 100% 30.01 in 3.0 mi NNE 4.6 mph - 0.12 in Rain Rain
8:34 AM 39.2 °F 37.0 °F 39.2 °F 100% 30.00 in 2.5 mi NNE 3.5 mph - 0.15 in Rain Rain
8:50 AM 41.0 °F 38.0 °F 39.2 °F 93% 30.00 in 2.5 mi NE 4.6 mph - 0.17 in Rain Light Rain
8:53 AM 41.0 °F 38.0 °F 39.0 °F 93% 30.00 in 2.5 mi NE 4.6 mph - 0.17 in Rain Light Rain
9:07 AM 41.0 °F 38.0 °F 39.2 °F 93% 30.00 in 2.0 mi SE 4.6 mph - 0.03 in Rain Rain
9:24 AM 41.0 °F 39.0 °F 39.2 °F 93% 30.01 in 2.5 mi NE 3.5 mph - 0.06 in Rain Light Rain
9:40 AM 41.0 °F - 39.2 °F 93% 30.01 in 2.0 mi Calm Calm - 0.08 in Rain Light Rain
9:53 AM 41.0 °F - 39.0 °F 93% 30.02 in 2.5 mi Calm Calm - 0.10 in Rain Light Rain
9:55 AM 41.0 °F - 39.2 °F 93% 30.02 in 2.0 mi Calm Calm - 0.00 in Rain Rain
10:10 AM 41.0 °F 39.0 °F 39.2 °F 93% 30.01 in 1.8 mi East 3.5 mph - 0.03 in Rain Rain
10:27 AM 41.0 °F 36.4 °F 39.2 °F 93% 29.99 in 1.5 mi SSE 6.9 mph - 0.08 in Rain Rain
10:40 AM 41.0 °F 33.5 °F 39.2 °F 93% 29.93 in 1.2 mi SE 13.8 mph 17.3 mph 0.09 in Rain Light Rain
10:44 AM 41.0 °F 37.1 °F 39.2 °F 93% 29.95 in 0.8 mi Variable 5.8 mph 17.3 mph 0.10 in Rain Light Rain
10:50 AM 41.0 °F 35.8 °F 41.0 °F 100% 29.98 in 1.0 mi North 8.1 mph - 0.10 in Rain Light Rain
10:53 AM 41.0 °F 35.8 °F 39.9 °F 96% 29.99 in 1.2 mi North 8.1 mph - 0.10 in Rain Light Rain
10:57 AM 41.0 °F - 39.2 °F 93% 29.99 in 2.0 mi Calm Calm - 0.00 in Rain Light Rain
11:10 AM 42.8 °F 40.1 °F 41.0 °F 93% 29.99 in 2.5 mi SE 4.6 mph - 0.00 in   Overcast
11:23 AM 42.8 °F 41.1 °F 41.0 °F 93% 29.99 in 4.0 mi NE 3.5 mph - 0.00 in   Overcast
11:32 AM 42.8 °F 39.3 °F 41.0 °F 93% 29.99 in 4.0 mi NE 5.8 mph - 0.00 in   Overcast
11:45 AM 44.6 °F 41.4 °F 42.8 °F 93% 29.99 in 2.0 mi NE 5.8 mph - 0.00 in   Overcast
11:53 AM 43.0 °F 39.5 °F 41.0 °F 93% 29.99 in 2.5 mi NE 5.8 mph - 0.00 in   Overcast
12:00 PM 44.6 °F 42.2 °F 42.8 °F 93% 29.99 in 3.0 mi NE 4.6 mph - N/A   Overcast
12:09 PM 44.6 °F 42.2 °F 42.8 °F 93% 29.98 in 2.0 mi NE 4.6 mph - N/A   Overcast
12:27 PM 44.6 °F 43.1 °F 42.8 °F 93% 29.98 in 2.5 mi ENE 3.5 mph - N/A   Overcast
12:34 PM 44.6 °F 43.1 °F 42.8 °F 93% 29.98 in 4.0 mi NE 3.5 mph - N/A   Overcast
12:53 PM 46.0 °F 43.9 °F 43.0 °F 89% 29.97 in 6.0 mi NE 4.6 mph - N/A   Overcast
1:19 PM 46.4 °F - 42.8 °F 87% 29.96 in 6.0 mi Calm Calm - N/A   Overcast
1:53 PM 46.9 °F - 44.1 °F 90% 29.95 in 6.0 mi East 3.5 mph - N/A   Overcast
2:53 PM 48.0 °F - 44.1 °F 86% 29.93 in 7.0 mi East 4.6 mph - N/A   Overcast
3:15 PM 48.2 °F - 44.6 °F 87% 29.92 in 7.0 mi East 6.9 mph - N/A   Overcast
3:53 PM 48.9 °F - 45.0 °F 86% 29.90 in 6.0 mi East 4.6 mph 32.2 mph N/A   Overcast
4:53 PM 50.0 °F - 45.0 °F 83% 29.89 in 6.0 mi East 5.8 mph - N/A   Haze
5:53 PM 50.0 °F - 45.0 °F 83% 29.88 in 6.0 mi East 5.8 mph - N/A   Haze
6:53 PM 48.9 °F - 45.0 °F 86% 29.90 in 6.0 mi ESE 4.6 mph - N/A   Overcast
7:53 PM 48.9 °F - 45.0 °F 86% 29.89 in 6.0 mi East 9.2 mph - N/A   Overcast
8:53 PM 48.0 °F - 45.0 °F 89% 29.87 in 6.0 mi East 8.1 mph - N/A   Overcast
9:01 PM 48.2 °F - 44.6 °F 87% 29.87 in 6.0 mi East 8.1 mph - N/A   Overcast
9:53 PM 48.0 °F - 45.0 °F 89% 29.86 in 4.0 mi East 10.4 mph - N/A   Overcast
10:07 PM 48.2 °F - 46.4 °F 93% 29.88 in 3.0 mi East 8.1 mph - N/A   Overcast
10:24 PM 48.2 °F - 46.4 °F 93% 29.88 in 2.0 mi East 9.2 mph - N/A   Overcast
10:40 PM 46.4 °F 40.7 °F 44.6 °F 93% 29.89 in 1.5 mi East 12.7 mph - N/A   Overcast
10:53 PM 46.9 °F - 46.0 °F 97% 29.87 in 1.5 mi East 13.8 mph - N/A   Overcast
11:08 PM 46.4 °F 40.4 °F 44.6 °F 93% 29.85 in 1.0 mi East 13.8 mph 20.7 mph N/A   Overcast
11:18 PM 46.4 °F 41.9 °F 46.4 °F 100% 29.87 in 1.2 mi ENE 9.2 mph - N/A   Overcast
11:53 PM 46.9 °F - 46.0 °F 97% 29.86 in 1.0 mi ESE 9.2 mph - 0.00 in Rain Light Rain